Find Local Weather

World > North America > United States > Florida

Gainesville, Florida Regional Weather

Lat: 29.67N, Lon: 82.34W
Wx Zone: FLZ036
Feedback
Expires:201808190800;;883149
ASUS42 KTBW 190716
RWRFL 
FLORIDA REGIONAL WEATHER ROUNDUP
NATIONAL WEATHER SERVICE TAMPA BAY RUSKIN FL
300 AM EDT SUN AUG 19 2018

NOTE: "FAIR" INDICATES FEW OR NO CLOUDS BELOW 12,000 FEET WITH NO
SIGNIFICANT WEATHER AND/OR OBSTRUCTIONS TO VISIBILITY.


FLZ011-016>038-118-127-128-134-139-239-190800-
NORTH FLORIDA
  
CITY           SKY/WX    TMP DP  RH WIND       PRES   REMARKS
MARIANNA       FAIR      76  75  97 S3        29.98S                  
TALLAHASSEE    FAIR      76  75  97 CALM      29.98F                  
PERRY          FAIR      78  76  93 CALM      30.00F                  
LIVE OAK       CLEAR     75  75 100 CALM      30.00F                  
CROSS CITY     FAIR      75 N/A N/A CALM      30.01F                  
LAKE CITY      FAIR      72  72 100 CALM      30.01F                  
GAINESVILLE    FAIR      77  73  87 S5        30.05F                  
WILLISTON        N/A    N/A N/A N/A MISG        N/A                   
PALATKA        CLOUDY    73  73 100 CALM      30.03S                  
MAYPORT NAS    FAIR      78  74  87 SW3       30.01F                  
JACKSONVILLE   FAIR      76  74  93 CALM      30.00F                  
JAX NAS        FAIR      81  74  79 SW6       30.02F                  
JAX CECIL      FAIR      75  73  94 CALM      30.01F                  
FERNANDINA BEA FAIR      79  74  86 CALM      30.00F                  
ST AUGUSTINE   FAIR      77  73  87 SW6       30.02F                  
PALM COAST     FAIR      76  73  89 S3        30.02F                  

STATION/POSITION SKY/WX   TEMP    WIND        PRES    WAVE   SWELL
                          AIR SEA DIR/SP/G            HT/PER HT/PER
                          (F)     (DEG/KT/KT) (MB)    (FT/S) (FT/S)
SHELL POINT      NOT AVBL
KEATON BEACH               84     220/  7/  8 1016.4F
CEDAR KEY                  84     220/  4/  5 1017.1F
FERNANDINA                 79 84  140/  3/  3 1017.2
30.7N   81.3W                 80                N/A     2/ 4
MAYPORT                    78 85  190/  3/  5 1016.8
31.4N   80.9W              82 82  200/ 14/ 16 1016.0    3/ 5   2/ 7
ST AUGUSTINE               79 79  180/  6/  7 1017.0F

$$

SKY/WX - Weather  TMP - Temperature  DP - Dewpoint  RH - Relative Humidity
WIND - Wind Direction/Speed PRES - Barometric Pressure